Location: Newark
(52.3735°N, 16.9806°E)
Time: 04:38:30
(UTC+00:00)

LilacSat-2 - Pass Details

Date: 29 November 2021
Orbit: 511 x 532 km, 97.5° (Epoch: 16 January)

Event Time Altitude Azimuth Distance (km) Brightness Sun altitude
Rises 04:34:28 0° 17° (NNE) 2,681 ? -17.8°
Reaches altitude 10° 04:36:37 10° 22° (NNE) 1,789 ? -17.4°
Maximum altitude 04:40:24 53° 100° (E) 660 ? -16.9°
Drops below altitude 10° 04:44:11 10° 178° (S) 1,782 ? -16.3°
Sets 04:46:19 0° 183° (S) 2,668 ? -16.0°
